Location: Austin
(30.3000°N, 97.7500°W)
Time: 01:36:45
(UTC-05:00)

Cosmos 1777 Rocket - Pass Details

Date: 01 August 2025
Orbit: 753 x 771 km, 74.0° (Epoch: 10 March)

Event Time Altitude Azimuth Distance (km) Brightness Sun altitude
Rises 05:57:20 0° 341° (NNW) 3,213 7.4 -11.1°
Reaches altitude 10° 05:59:42 10° 340° (NNW) 2,287 6.6 -10.6°
Maximum altitude 06:04:53 75° 256° (WSW) 788 3.9 -9.7°
Drops below altitude 10° 06:10:03 10° 171° (S) 2,287 6.3 -8.7°
Sets 06:12:25 0° 170° (S) 3,213 7.1 -8.2°
